This is the latest recevied weather packets stored in our database for station/object YU7OR-2. If no packets are shown the sender has not sent any weather packets the latest 10 day(s).
| Time | Temp. | Humidity | Pressure | Rain* | Wind** | Luminosity | Snow |
|---|---|---|---|---|---|---|---|
| 1777770084 | 8.89° C | 65% | 1016.3 hPa | 0 mm | - | - | - |
| 1777769819 | 8.89° C | 65% | 1016.3 hPa | 0 mm | - | - | - |
| 1777769524 | 9.44° C | 66% | 1016.3 hPa | 0 mm | - | - | - |
| 1777769256 | 9.44° C | 65% | 1016.4 hPa | 0 mm | - | - | - |
| 1777768964 | 10° C | 64% | 1016.5 hPa | 0 mm | - | - | - |
| 1777768709 | 10° C | 63% | 1016.3 hPa | 0 mm | - | - | - |
| 1777768444 | 10.56° C | 62% | 1016.5 hPa | 0 mm | - | - | - |
| 1777768149 | 10.56° C | 59% | 1016.4 hPa | 0 mm | - | - | - |
| 1777767884 | 10.56° C | 58% | 1016.4 hPa | 0 mm | - | - | - |
| 1777767619 | 10.56° C | 58% | 1016.4 hPa | 0 mm | - | - | - |
| 1777767364 | 10.56° C | 58% | 1016.4 hPa | 0 mm | - | - | - |
| 1777767094 | 10.56° C | 57% | 1016.6 hPa | 0 mm | - | - | - |
| 1777766799 | 10.56° C | 56% | 1016.3 hPa | 0 mm | - | - | - |
| 1777766554 | 10.56° C | 56% | 1016.3 hPa | 0 mm | - | - | - |
| 1777766294 | 10.56° C | 55% | 1016.3 hPa | 0 mm | - | - | - |
| 1777766024 | 10.56° C | 57% | 1016.3 hPa | 0 mm | - | - | - |
| 1777765759 | 10.56° C | 57% | 1016.3 hPa | 0 mm | - | - | - |
| 1777765494 | 10.56° C | 57% | 1016.3 hPa | 0 mm | - | - | - |
| 1777765239 | 10.56° C | 57% | 1016.3 hPa | 0 mm | - | - | - |
| 1777764999 | 10.56° C | 57% | 1016.3 hPa | 0 mm | - | - | - |
| 1777764719 | 11.11° C | 57% | 1016.3 hPa | 0 mm | - | - | - |
| 1777764469 | 11.11° C | 58% | 1016.4 hPa | 0 mm | - | - | - |
| 1777764209 | 11.67° C | 58% | 1016.6 hPa | 0 mm | - | - | - |
| 1777763954 | 11.67° C | 57% | 1016.6 hPa | 0 mm | - | - | - |
| 1777763669 | 12.22° C | 55% | 1016.8 hPa | 0 mm | - | - | - |
* Rain latest hour (hover to see other rain measurements)
** Current wind speed in m/s (hover to see current wind gust speed)